Theta_e
321 320 320 320 318 317 316 316 316 315 315 315 315 315 314 314 313 314 314 314 313 313 313 313 313 313 310 300 300 321 335 333 326 313 306 303 301 299 297 300 298 297 301 302 304 303 301
320 320 319 319 317 315 315 315 315 315 315 315 314 314 314 314 313 313 313 313 313 312 313 313 312 315 305 291 301 324 325 323 317 307 305 303 302 302 299 297 299 300 301 302 300 300 300
318 318 318 318 317 315 314 314 314 314 314 314 315 314 314 314 313 312 313 313 313 313 314 314 313 315 307 297 315 320 322 315 312 309 304 303 306 304 300 296 299 298 295 295 296 297 297
317 317 317 317 316 315 314 314 314 314 314 314 314 313 313 313 313 313 312 312 312 313 314 314 315 310 295 305 309 314 314 310 309 307 306 307 307 303 300 298 295 293 293 289 293 296 297
317 317 317 317 315 314 313 313 313 313 314 313 313 313 313 313 313 312 311 311 312 314 315 316 308 303 299 316 311 311 311 305 306 306 305 311 304 299 296 292 289 290 289 289 293 295 294
316 316 316 316 316 313 313 312 312 313 313 313 313 313 313 312 313 312 311 313 314 316 315 315 314 301 305 305 314 311 309 307 304 303 301 299 295 291 288 288 285 289 287 290 290 292 294
316 316 316 316 316 313 313 313 313 313 313 313 313 312 312 313 313 312 307 304 303 302 308 302 304 303 308 314 317 309 311 309 306 300 294 295 292 288 291 291 291 291 290 289 292 295 293
315 316 316 315 315 313 313 313 312 312 312 313 312 312 312 312 313 312 307 299 301 307 299 309 309 309 312 313 307 308 312 304 301 296 296 293 290 295 296 294 293 292 291 292 294 298 297
315 315 315 314 313 313 313 312 312 312 312 312 311 311 312 311 311 307 302 302 306 306 297 303 309 308 308 310 306 305 309 304 299 296 294 291 295 299 298 295 295 293 292 291 295 302 303
314 314 314 313 312 312 312 312 312 312 311 311 311 311 311 310 302 299 300 307 307 306 294 300 305 308 310 309 305 311 310 305 298 296 295 295 299 298 296 296 296 289 293 292 293 295 291
313 313 313 312 312 312 311 311 311 311 311 310 310 310 310 310 302 298 302 303 306 305 283 301 307 316 310 306 307 306 308 304 298 298 297 295 297 297 295 297 296 291 293 291 291 287 286
312 312 311 311 311 311 310 310 310 310 310 310 310 310 310 305 306 303 304 304 306 294 286 300 308 306 304 305 305 303 304 305 303 299 298 297 302 301 298 295 296 294 291 289 286 285 284
310 310 310 310 310 309 309 309 309 309 309 309 309 309 307 308 298 303 303 301 292 288 300 301 304 307 304 302 303 301 299 297 294 290 290 296 298 300 297 293 293 290 286 281 280 279 280
309 309 309 309 308 308 308 308 308 309 309 308 308 307 304 307 307 305 299 297 286 295 296 305 306 306 301 302 302 300 298 296 296 295 290 291 291 299 300 294 290 287 286 282 277 277 280
308 307 309 308 308 308 308 307 307 308 308 307 306 299 300 304 306 304 298 290 291 295 302 305 304 300 299 302 300 302 295 296 297 297 291 291 292 296 298 296 295 289 284 286 282 281 281
307 306 307 308 310 309 308 308 307 308 307 306 302 299 301 307 308 301 296 293 297 303 307 305 297 301 296 298 296 296 298 303 302 300 299 297 289 294 296 297 295 294 292 286 282 279 278
307 307 308 309 309 308 308 307 307 308 307 306 297 296 304 306 302 298 292 294 300 305 306 303 300 299 299 300 297 295 298 304 305 300 300 293 292 290 294 290 289 289 285 284 284 282 279
307 307 307 308 308 306 307 307 307 307 306 304 299 294 308 306 295 293 293 297 302 303 307 307 306 303 300 301 298 298 298 301 303 299 294 292 289 287 289 293 293 289 287 285 282 281 280
306 307 307 307 307 306 306 306 306 306 307 302 296 296 310 310 293 293 298 300 304 302 304 305 304 305 304 298 293 300 301 305 302 300 296 295 288 284 286 289 293 292 291 287 285 284 281
306 307 307 306 307 307 307 306 306 306 307 304 297 295 301 305 305 299 296 297 296 302 303 305 303 303 299 296 296 296 301 302 304 304 310 301 288 289 287 287 291 289 291 290 287 283 283
306 306 306 306 306 307 307 308 308 307 307 302 297 296 300 295 301 300 298 297 297 296 301 301 299 300 297 292 295 297 300 298 300 306 298 295 290 291 291 293 293 292 291 291 288 287 285
305 306 306 306 306 306 307 308 308 307 306 297 293 296 300 300 299 299 297 294 296 296 298 298 297 300 297 294 294 293 296 294 296 297 296 294 290 291 290 294 294 292 294 293 294 294 289
305 306 306 306 306 306 307 308 308 307 306 298 301 301 300 298 298 296 298 299 299 297 300 300 299 297 296 298 299 298 297 296 295 294 293 292 291 289 285 292 292 286 292 293 293 295 295
305 305 305 305 306 306 307 306 308 308 307 303 301 301 298 295 298 298 301 302 299 299 297 301 300 296 300 302 300 298 300 301 301 298 295 290 288 288 285 289 282 290 298 298 295 296 297
304 305 305 306 305 305 306 306 307 307 307 302 303 301 299 295 300 300 301 299 298 298 299 300 302 302 301 295 291 288 289 294 297 298 297 294 292 288 285 284 290 293 295 293 292 292 297
305 305 305 305 305 306 306 306 307 307 307 298 297 300 299 297 296 301 299 298 294 293 296 300 303 303 297 292 287 282 282 286 289 292 297 296 293 290 284 282 280 291 296 299 298 288 296
305 305 306 305 306 307 307 307 307 307 307 300 297 299 297 295 299 301 296 296 299 295 292 294 299 300 297 289 288 285 287 292 287 288 288 288 288 285 283 283 290 295 298 300 289 289 296
305 305 305 305 305 306 307 307 307 307 307 302 297 298 297 294 297 303 304 298 298 296 292 297 295 298 295 289 289 288 287 290 291 294 289 289 286 286 289 285 284 296 294 288 288 293 294
304 305 306 306 306 306 307 308 308 308 307 305 293 298 299 294 298 303 306 307 305 301 298 298 298 296 298 291 290 291 289 289 291 288 292 284 292 289 287 287 294 295 291 291 291 290 291
Wind_Speed
20 21 21 21 22 21 21 20 20 20 19 20 20 20 20 19 17 16 14 12 10 9 7 6 5 4 2 1 13 2 16 17 8 6 9 8 7 6 7 7 6 5 4 6 10 7 5
20 20 21 21 22 21 21 21 21 21 20 20 21 20 19 18 17 16 14 12 10 9 8 5 3 1 1 5 4 7 10 11 9 6 7 8 10 8 5 6 7 8 11 9 5 8 5
21 21 21 20 21 22 22 22 22 22 22 22 20 22 21 20 18 16 15 13 10 8 6 4 2 2 1 17 7 7 8 5 7 7 7 4 6 6 5 5 6 3 4 4 8 5 6
21 21 21 20 22 23 23 23 23 23 23 22 21 22 22 21 19 17 15 13 10 8 5 3 4 2 10 5 2 7 6 5 5 2 4 6 6 2 3 2 5 1 2 1 3 8 4
21 20 20 20 22 22 23 23 24 24 24 23 22 22 21 22 20 17 16 14 10 7 4 6 3 3 11 3 3 7 8 8 9 2 2 4 4 2 1 4 4 5 3 4 7 6 5
22 22 21 21 21 22 23 23 23 24 24 24 23 21 20 21 18 17 16 13 3 6 5 5 4 2 6 4 4 8 4 9 6 8 2 4 4 3 4 4 5 4 2 1 4 1 6
22 23 23 22 22 23 23 24 24 24 24 25 25 23 21 19 16 11 8 2 2 1 4 12 8 5 4 4 6 4 6 5 5 4 6 3 4 6 10 7 3 4 2 3 6 5 4
22 23 23 24 24 24 24 24 25 25 25 25 25 24 23 19 15 8 3 5 8 2 6 16 8 8 7 3 4 5 8 6 4 4 4 5 6 12 6 6 4 3 3 7 4 3 7
22 22 23 24 24 24 25 25 25 25 26 26 25 24 24 22 17 3 8 11 3 9 2 6 8 6 6 10 8 6 10 6 5 6 5 6 5 8 7 5 6 5 5 4 3 6 9
23 23 24 24 25 25 26 26 26 26 26 26 25 24 23 22 1 1 7 5 7 2 3 6 5 8 6 6 5 8 8 7 2 9 7 5 6 7 5 7 7 3 6 2 6 7 5
24 24 24 25 25 26 26 27 27 28 28 28 26 25 22 7 7 4 4 5 7 4 3 3 4 5 6 10 7 5 7 5 8 6 7 10 4 5 5 8 8 6 5 3 3 7 6
25 25 26 26 26 27 28 28 28 29 30 30 30 27 23 6 6 13 2 8 3 6 7 2 4 6 4 3 3 5 5 6 4 4 3 7 4 4 5 5 5 9 6 6 7 4 4
26 26 25 26 26 28 29 29 30 30 31 32 32 33 21 7 7 2 5 3 4 5 4 1 3 3 3 4 5 5 7 6 6 4 4 5 2 1 5 10 7 7 7 5 6 6 5
26 26 26 27 27 28 28 29 30 29 32 35 36 36 5 7 11 2 2 4 4 5 5 2 2 3 5 2 2 4 11 8 0 4 3 5 3 4 2 6 8 1 6 8 5 4 5
26 26 25 26 27 27 28 29 29 29 31 34 33 4 3 4 7 5 3 4 9 6 4 1 2 2 2 3 3 4 6 11 9 9 6 4 3 1 4 5 7 2 3 4 10 4 3
25 27 27 27 25 26 28 28 30 30 32 34 9 6 4 3 11 4 4 6 6 4 4 2 1 2 2 3 4 4 5 4 6 8 4 2 1 3 3 5 7 6 6 4 4 5 3
26 26 26 26 26 27 28 29 31 29 29 27 3 5 5 5 3 4 5 5 4 4 3 3 3 3 3 3 1 2 2 4 2 5 4 5 4 2 3 1 8 4 2 8 7 5 7
26 26 26 26 26 29 29 28 31 30 30 9 5 3 2 1 4 1 4 5 3 2 3 2 4 3 6 6 3 1 2 4 3 8 7 4 5 4 2 5 1 2 5 6 7 5 2
26 26 26 25 26 28 29 29 31 31 26 6 5 4 4 3 4 3 5 3 3 3 4 6 4 3 2 3 2 2 3 1 6 5 6 6 1 5 3 6 3 6 3 6 6 4 6
25 25 25 26 26 26 27 29 32 33 30 1 2 4 6 5 1 3 5 5 2 3 3 4 4 4 4 3 3 1 2 3 3 4 8 10 2 6 9 7 5 5 4 4 6 5 4
25 26 26 26 26 26 26 27 29 30 32 1 3 2 1 4 3 2 1 5 4 4 4 6 3 3 5 3 2 1 3 3 6 4 4 5 4 1 2 5 4 5 6 5 4 4 6
25 25 26 25 26 26 25 25 27 29 30 5 4 4 6 3 4 13 10 6 5 4 4 4 4 4 4 3 5 5 4 2 1 8 8 7 5 2 2 2 6 5 6 4 4 3 1
25 24 25 25 25 25 23 23 24 25 20 4 2 3 3 7 6 4 4 6 7 3 9 7 1 4 7 3 2 4 6 7 5 4 4 4 7 4 2 3 6 2 3 1 3 2 1
24 25 25 24 24 23 22 23 21 21 19 2 2 3 4 2 2 3 10 6 12 8 4 5 8 5 2 7 3 4 9 11 10 8 2 5 6 2 4 3 4 3 4 6 9 4 4
25 25 24 23 22 22 22 22 20 21 21 2 2 3 3 2 3 7 15 6 7 6 7 4 7 3 5 5 5 5 6 6 8 6 10 6 4 5 5 3 3 2 3 2 1 2 3
25 25 23 22 22 22 22 20 20 19 19 3 2 2 1 2 6 5 4 5 4 5 7 5 4 5 6 5 5 3 2 1 1 3 6 7 7 5 3 5 8 2 1 1 4 3 1
24 24 24 24 23 22 21 19 18 17 16 4 3 3 1 2 3 5 4 3 3 3 1 4 8 9 5 4 4 2 1 1 3 3 5 5 5 4 2 3 3 2 4 2 2 1 1
23 23 24 23 23 22 21 19 16 14 13 6 4 3 2 2 6 3 4 3 4 4 3 5 3 5 5 5 3 1 3 2 4 3 2 3 3 2 1 2 3 4 2 0 2 5 5
25 23 23 23 22 22 20 18 16 12 10 5 2 2 1 2 5 3 6 6 4 1 2 4 4 2 2 4 2 3 3 3 2 3 3 2 2 3 2 3 2 5 6 4 3 3 4
Wind_Direction
359 359 358 358 358 354 352 352 350 349 347 345 345 345 343 338 332 325 318 312 305 299 293 291 307 308 359 222 251 110 111 139 127 137 143 133 141 139 165 187 143 220 241 217 238 266 248
359 356 356 355 356 353 352 351 349 347 345 346 346 344 341 338 332 324 317 310 301 292 284 283 295 308 176 251 226 157 127 139 145 133 168 145 170 197 150 186 173 209 217 236 238 243 224
358 355 352 352 354 353 351 349 348 347 346 345 343 343 341 337 332 325 316 309 304 295 285 265 224 212 238 237 114 131 140 173 160 148 148 203 163 166 136 162 228 198 224 256 227 211 213
354 351 350 350 354 352 350 348 347 346 345 343 342 340 339 336 331 326 316 308 300 290 266 220 189 214 245 239 165 152 161 124 140 56 121 184 158 140 200 219 27 125 72 62 271 151 199
352 350 349 349 352 351 349 345 345 343 343 341 339 338 336 335 331 326 318 307 288 267 211 175 147 196 264 306 215 178 156 146 122 136 260 135 128 183 12 94 17 360 198 200 311 186 117
351 350 350 349 349 349 346 344 343 341 340 338 338 335 333 334 330 329 323 306 245 148 141 170 261 325 269 246 188 135 167 141 143 128 170 151 76 103 42 98 196 204 193 314 259 102 72
349 349 349 348 348 347 344 342 341 339 337 335 334 333 332 330 326 329 340 41 74 218 225 194 191 226 279 279 124 123 152 107 122 128 144 187 116 199 212 200 175 139 127 249 242 230 129
347 347 346 347 347 346 343 341 338 336 334 332 331 330 330 326 318 309 289 224 225 241 289 222 229 269 275 51 326 102 132 125 129 163 130 62 218 216 179 165 165 202 249 275 292 7 101
345 345 346 346 345 343 342 339 337 335 332 330 328 328 329 326 316 263 224 232 4 2 245 281 187 202 207 150 205 221 146 143 151 147 162 158 231 133 139 161 175 203 199 235 179 89 61
346 346 345 344 343 341 340 337 334 331 329 327 325 325 328 329 34 239 245 218 237 173 27 267 241 252 146 163 198 186 167 140 134 185 166 223 257 198 167 194 160 197 188 127 181 96 152
345 344 343 341 340 338 336 335 333 331 328 324 322 320 324 326 291 232 264 20 121 79 339 235 192 132 162 160 148 210 182 73 155 183 131 240 195 181 157 202 150 199 122 163 98 92 105
345 344 342 341 339 337 335 333 333 331 327 323 319 316 319 297 210 234 334 332 70 51 254 317 137 145 165 177 190 110 130 91 157 156 230 226 254 201 185 68 116 144 104 53 46 81 65
345 343 341 340 339 336 334 333 333 332 327 324 319 312 303 224 226 172 148 141 69 156 301 215 95 72 233 155 165 130 140 131 160 108 257 343 311 55 113 75 31 65 60 12 15 17 203
344 343 342 341 340 337 335 334 334 331 327 325 322 312 263 196 218 275 131 83 156 218 242 322 75 13 100 358 105 159 139 179 119 100 110 163 355 162 185 134 174 157 135 147 165 184 261
345 344 342 342 340 339 339 337 336 333 329 330 320 320 257 237 170 127 115 152 188 203 205 81 86 90 96 14 109 92 149 184 191 168 153 136 261 291 30 129 125 189 74 141 103 17 67
345 345 344 342 338 339 339 339 339 337 333 332 314 318 270 81 156 123 96 209 175 201 115 72 106 31 95 338 75 63 146 196 158 190 129 211 100 344 151 81 43 107 139 91 19 132 212
344 343 342 340 340 339 342 340 340 338 334 328 330 336 336 128 146 61 166 210 203 201 121 137 154 117 134 174 125 112 117 181 206 147 112 133 111 261 62 114 168 145 143 57 110 121 160
344 344 344 344 341 343 342 339 342 342 340 345 335 44 189 259 68 88 152 186 213 243 112 123 115 132 166 190 183 84 64 206 124 167 145 172 140 151 177 293 192 62 133 126 122 208 124
345 344 345 344 343 345 343 343 342 344 342 308 320 284 297 123 75 9 318 315 195 179 187 153 144 176 114 121 105 168 164 241 28 54 143 160 295 96 23 349 19 83 78 94 103 81 186
344 345 346 347 347 345 344 344 344 344 342 215 329 20 332 47 156 61 7 323 111 33 74 101 102 88 95 57 65 173 269 52 78 103 78 78 116 152 186 202 143 108 104 106 103 113 173
345 346 347 348 349 348 347 344 342 343 344 19 9 14 337 5 343 162 2 338 317 64 68 33 55 133 138 111 38 264 207 353 40 104 66 106 101 236 63 122 96 113 140 158 156 164 154
346 346 348 350 350 351 348 347 347 350 345 66 49 8 343 327 321 25 21 333 14 25 33 17 109 87 92 116 193 173 154 93 94 27 21 359 138 125 97 90 75 81 41 71 58 34 237
346 347 348 349 351 351 349 350 352 356 356 32 340 305 296 351 10 78 275 308 357 345 16 49 20 89 76 36 17 39 57 62 63 109 199 143 136 103 229 152 117 41 313 46 110 60 335
347 351 349 349 350 353 354 357 356 1 7 318 345 314 356 16 18 313 351 10 23 9 72 350 30 54 360 310 98 50 72 76 74 43 43 123 104 93 139 92 221 139 55 57 107 82 62
348 348 348 347 352 355 353 355 355 2 4 346 327 349 2 29 292 344 7 5 6 2 32 45 5 312 301 42 55 39 357 26 19 42 38 49 98 79 136 149 104 174 15 39 187 150 98
346 347 349 347 349 348 351 352 351 353 1 31 318 307 344 1 357 283 334 354 25 342 360 354 332 319 46 69 60 94 189 77 65 22 35 51 59 110 127 152 193 105 328 24 210 208 1
343 343 343 344 346 347 348 348 349 350 356 14 300 7 20 38 295 4 21 321 348 25 6 321 339 355 30 51 66 94 49 315 70 54 349 8 9 79 68 99 113 13 314 343 227 80 276
342 343 343 342 344 345 345 346 346 349 354 7 286 345 56 16 286 318 324 348 353 51 67 289 33 353 26 62 101 210 87 84 91 30 42 60 41 46 66 121 184 351 20 156 319 355 356
343 341 335 334 337 340 340 338 342 344 349 26 322 321 357 158 257 295 273 267 229 198 138 2 156 213 200 89 52 102 67 62 119 134 27 31 47 140 105 163 28 17 93 80 39 346 336